Dauntless Aviation
Greetings, Guest! To participate, [sign up for a free account] or [log in]
Airports Europe United Kingdom
EGLC
LCY

London City

London, UNITED KINGDOM

Airport Info
Edit

Location

Latitude / Longitude: 51°30'18"N / 0°3'12"E
  51°30.3'N / 0°3.21'E
  51.5050 / 0.0535

Nearby radio navigation aids

LCY CITY NDB on field.

Runway Information

Runway 10 /28

Dimensions: 4948 x 98 ft.
Surface: ASP
 
Runway 10
Runway 28
Latitude: 51.505528 51.504922
Longitude: 0.045753 0.064953
Elevation: 16 ft. 16 ft.
Runway true heading: 91.1 271.1
 

Instrument Procedures

  Control Zone and Control Area Chart
  Aircraft Parking/Docking Chart
  Aerodrome Chart

STARs (Standard Terminal Arrivals)

  STAR via SPEAR (Northwest)
  STAR via ALKIN (South)
  STAR via SPEAR (East)
  STAR via SPEAR (West)
  STAR via SPEAR (Alternate Holding at LOGAN and ALKIN)

IAPs (Instrument Approach Procedures)

  LOC/DME/NDB (L) Rwy 27 (Aircraft CAT A/B/C)
  Visual Approach Profile Rwy 27
  ILS (5.5°GP) /DME/NDB (L) Rwy 27 (Aircraft CAT A/B/C)
  Visual Approach Profile Rwy 09
  LOC/DME/NDB (L) Rwy 09
  ATC Surveillance Minimum Altitude Chart
  ILS (5.5°GP) /DME/NDB (L) Rwy 09 (Aircraft CAT A/B/C)

Departure Procedures

  SID DOVER/LYDD
  SID CLACTON
  SID SOUTHAMPTON
  SID BROOKMANS PARK/COMPTON
Satellite photo at:
Airport distance calculator
From:
Weather Reports

METAR

EGLC

EGLC 301950Z 08010KT CAVOK 17/08 Q1020
EGKB
11.4nm S
EGKB 301950Z VRB06KT CAVOK 14/08 Q1020
EGWU
17.8nm W
EGWU 301950Z 33003KT CAVOK 15/07 Q1019 BLU NOSIG
EGLL
18.9nm SW
EGLL 301950Z VRB03KT CAVOK 17/04 Q1020 NOSIG
EGSS
23.5nm N
EGSS 301950Z 09004KT CAVOK 13/09 Q1020
EGKK
23.8nm S
EGKK 301950Z 10004KT CAVOK 17/05 Q1020

TAF

EGLC
TAF EGLC 301657Z 3018/3021 VRB04KT 9999 FEW045
EGKB
11.4nm S
TAF EGKB 301657Z 3018/3020 32007KT 9999 FEW045
EGWU
17.8nm W
TAF EGWU 301635Z 3018/3112 32008KT CAVOK
EGLL
18.9nm SW
TAF EGLL 301653Z 3018/3124 32010KT CAVOK BECMG 3021/3024 VRB03KT BECMG 3109/3112 21010KT
EGSS
23.5nm N
TAF EGSS 301657Z 3018/3124 VRB04KT 9999 FEW045 BECMG 3115/3118 21010KT BECMG 3121/3124 VRB04KT
EGKK
23.8nm S
TAF EGKK 301649Z 3018/3124 30010KT 9999 SCT040 BECMG 3018/3021 VRB03KT PROB30 3103/3107 6000
Safelog

 

Dauntless Aviation

© 2007-2015 Dauntless Aviation, all rights reserved
Information provided via PilotNav comes from a variety of official and unofficial data sources. As errors are possible, do not use PilotNav for primary flight planning purposes. Verify any information that you receive via PilotNav with current and canonical charts and other official documents. The material in this database is subject to database copyrights held by Dauntless Aviation and may not be copied without the express permission of Dauntless Aviation - licenses for use of part of all of this data are available for purchase; enquire via the Dauntless Aviation helpdesk. A number of mechanisms and markers exist in the database to protect against and identify infringement / copyright. Automated queries against this website are stictly prohibited, and all activity is logged and analyzed.